Stations météo

Publicité
Nancy/Essey, France (7180): Température de l'air & dewpoint: 17.03.2019 23:00:00 - 23.03.2019 23:00:00 (CET)Nancy/Essey, France (7180): Température de l'air 5cm: 17.03.2019 23:00:00 - 23.03.2019 23:00:00 (CET)Nancy/Essey, France (7180): Température de l'air -20cm & Température de l'air -100cm: 17.03.2019 23:00:00 - 23.03.2019 23:00:00 (CET)Nancy/Essey, France (7180): Vitesse du vent & gusts: 17.03.2019 23:00:00 - 23.03.2019 23:00:00 (CET)Nancy/Essey, France (7180): Direction du vent: 17.03.2019 23:00:00 - 23.03.2019 23:00:00 (CET)Nancy/Essey, France (7180): reduced air pressure: 17.03.2019 23:00:00 - 23.03.2019 23:00:00 (CET)Nancy/Essey, France (7180): visibility: 17.03.2019 23:00:00 - 23.03.2019 23:00:00 (CET)Nancy/Essey, France (7180): Ensoleillement: 17.03.2019 23:00:00 - 23.03.2019 23:00:00 (CET)Nancy/Essey, France (7180): Quantités de précipitations: 17.03.2019 23:00:00 - 23.03.2019 23:00:00 (CET)
Date & Time tt [°C] td [°C] tt 5cm [°C] tt -20cm [°C] tt -100cm [°C] ff [km/h] ff [knt] fx [km/h] fx [knt] dd ppp [hPa] vv [km] sd [min] rr [mm]
23.03.2019 23:00:00 8,7 4,3 5,4 8,4 7,7 8 4 15 8 NW 1028,1 5 0 0,0
23.03.2019 22:00:00 9,7 4,9 6,2 8,4 7,8 4 2 22 12 W 1028,0 5 0 0,0
23.03.2019 21:00:00 10,7 5,2 4,3 8,4 7,8 18 10 30 16 NNE 1027,8 6 0 0,0
23.03.2019 20:00:00 9,6 3,3 5,7 8,3 7,8 2 1 9 5 NNW 1027,7 7 0 0,0
23.03.2019 19:00:00 10,6 4,3 6,2 8,1 7,7 8 4 14 7 NNE 1027,4 7 12 0,0
23.03.2019 18:00:00 15,4 3,8 14,1 7,9 7,7 12 7 22 12 NNE 1026,8 8 60 0,0
23.03.2019 17:00:00 16,7 4,0 18,3 7,7 7,7 16 9 26 14 NE 1026,5 8 60 0,0
23.03.2019 16:00:00 17,0 3,6 19,9 7,5 7,7 16 9 26 14 NE 1026,6 10 60 0,0
23.03.2019 15:00:00 17,2 2,7 20,6 7,3 7,7 11 6 26 14 NE 1026,9 10 60 0,0
23.03.2019 14:00:00 17,0 2,2 20,9 7,1 7,8 14 8 27 14 NE 1027,6 12 60 0,0
23.03.2019 13:00:00 16,4 3,8 21,2 7,0 7,8 13 7 27 14 NE 1028,1 13 60 0,0
23.03.2019 12:00:00 16,1 4,5 20,8 6,9 7,7 8 4 19 10 E 1028,3 11 60 0,0
23.03.2019 11:00:00 14,8 4,8 18,0 7,0 7,8 3 2 10 5 ENE 1028,7 11 60 0,0
23.03.2019 10:00:00 10,8 3,6 14,0 7,0 7,7 6 3 12 7 S 1029,3 10 60 0,0
23.03.2019 09:00:00 7,0 1,5 7,0 7,1 7,7 4 2 8 5 S 1029,5 9 60 0,0
23.03.2019 08:00:00 3,9 0,8 -1,5 7,3 7,7 1 1 7 4 S 1029,7 6 60 0,0
23.03.2019 07:00:00 0,2 -0,7 -3,3 7,4 7,8 2 1 6 3 ESE 1029,9 2,8 5 0,0
23.03.2019 06:00:00 -0,1 -1,1 -3,7 7,5 7,7 2 1 6 3 SSE 1029,5 4,5 0 0,0
23.03.2019 05:00:00 0,0 -1,3 -3,1 7,6 7,7 2 1 4 2 NE 1029,5 4,5 0 0,0
23.03.2019 04:00:00 0,4 -1,0 -2,4 7,7 7,8 4 2 5 3 ESE 1029,6 4,6 0 0,0
23.03.2019 03:00:00 0,9 -0,7 -1,8 7,8 7,8 3 1 4 2 E 1029,5 6 0 0,0
23.03.2019 02:00:00 2,0 -0,3 -1,2 7,9 7,8 1 1 5 3 SE 1029,4 7 0 0,0
23.03.2019 01:00:00 3,3 0,0 -0,5 7,9 7,7 4 2 5 3 SE 1029,2 7 0 0,0
23.03.2019 00:00:00 3,4 0,4 0,4 8,0 7,8 1 1 3 2 SSW 1029,2 9 0 0,0
22.03.2019 23:00:00 5,0 0,7 1,2 8,0 7,8 1 0 4 2 W 1029,0 10 0 0,0
22.03.2019 22:00:00 6,0 1,1 1,5 8,0 7,8 3 2 5 3 E 1028,9 9 0 0,0
22.03.2019 21:00:00 7,2 1,9 3,3 7,9 7,7 4 2 6 3 ENE 1028,6 13 0 0,0
22.03.2019 20:00:00 10,6 2,2 5,4 7,8 7,8 3 2 13 7 ENE 1028,0 13 0 0,0
22.03.2019 19:00:00 12,3 3,2 8,4 7,6 7,8 11 6 17 9 NE 1027,7 19 27 0,0
22.03.2019 18:00:00 16,2 1,9 15,0 7,4 7,8 10 6 14 8 NNE 1027,2 19 60 0,0
22.03.2019 17:00:00 18,0 0,1 20,0 7,1 7,8 5 3 13 7 NE 1027,0 20 60 0,0
22.03.2019 16:00:00 17,6 0,7 20,2 6,9 7,8 5 3 14 7 ENE 1027,6 20 60 0,0
22.03.2019 15:00:00 17,5 -0,8 21,5 6,7 7,7 5 3 15 8 SSW 1028,1 20 60 0,0
22.03.2019 14:00:00 16,8 0,0 21,5 6,5 7,8 8 4 16 8 S 1028,5 18 60 0,0
22.03.2019 13:00:00 15,9 -0,8 20,3 6,4 7,8 6 3 16 9 S 1028,9 32 60 0,0
22.03.2019 12:00:00 14,9 0,3 18,6 6,4 7,8 5 3 13 7 ESE 1029,5 18 60 0,0
22.03.2019 11:00:00 12,2 -0,4 16,5 6,4 7,8 5 3 13 7 E 1030,2 20 60 0,0
22.03.2019 10:00:00 9,6 -0,1 14,1 6,5 7,8 4 2 10 5 S 1030,6 13 60 0,0
22.03.2019 09:00:00 7,8 0,5 9,0 6,6 7,8 2 1 5 3 E 1030,9 14 60 0,0
22.03.2019 08:00:00 3,3 -0,9 -1,3 6,7 7,8 1 1 4 2 ENE 1031,6 13 60 0,0
22.03.2019 07:00:00 -0,8 -2,8 -5,0 6,8 7,8 2 1 5 3 S 1031,6 13 3 0,0
22.03.2019 06:00:00 -0,7 -2,8 -4,5 6,9 7,8 4 2 7 4 S 1031,4 11 0 0,0
22.03.2019 05:00:00 -0,2 -2,4 -3,8 7,0 7,7 3 2 7 4 SE 1031,3 17 0 0,0
22.03.2019 04:00:00 -0,1 -2,5 -3,9 7,1 7,7 2 1 6 3 S 1031,3 19 0 0,0
22.03.2019 03:00:00 1,2 -1,4 -2,9 7,2 7,8 5 3 8 4 NW 1031,2 20 0 0,0
22.03.2019 02:00:00 1,2 -1,7 -2,4 7,3 7,8 1 1 4 2 NW 1031,4 20 0 0,0
22.03.2019 01:00:00 3,0 -0,8 -1,3 7,4 7,8 1 1 7 4 NW 1031,5 18 0 0,0
22.03.2019 00:00:00 4,4 -1,2 0,1 7,4 7,8 2 1 9 5 NW 1031,6 9 0 0,0
21.03.2019 23:00:00 6,6 -1,8 1,4 7,5 7,8 1 1 12 6 NNW 1031,6 28 0 0,0
21.03.2019 22:00:00 7,7 -1,5 2,6 7,5 7,8 5 3 8 5 N 1031,5 43 0 0,0
21.03.2019 21:00:00 7,2 -1,0 1,6 7,5 7,8 7 4 13 7 NE 1031,6 50 0 0,0
21.03.2019 20:00:00 9,3 -1,2 3,8 7,4 7,8 9 5 18 10 ENE 1031,4 60 0 0,0
21.03.2019 19:00:00 11,2 -1,6 8,3 7,3 7,8 14 8 22 12 E 1030,7 60 15 0,0
21.03.2019 18:00:00 14,5 -2,5 13,2 7,1 7,8 17 9 36 20 ENE 1030,2 59 60 0,0
21.03.2019 17:00:00 15,8 -2,7 17,6 6,9 7,8 24 13 41 22 NE 1030,3 60 60 0,0
21.03.2019 16:00:00 16,0 -2,5 18,7 6,7 7,8 27 15 45 24 NNE 1030,4 53 60 0,0
21.03.2019 15:00:00 15,7 -2,8 19,0 6,6 7,8 27 14 38 21 NNE 1030,8 47 60 0,0
21.03.2019 14:00:00 15,5 -2,5 18,0 6,5 7,8 23 13 40 22 ENE 1031,5 46 60 0,0
21.03.2019 13:00:00 14,5 -3,3 16,9 6,4 7,8 22 12 38 20 NE 1032,4 34 60 0,0
21.03.2019 12:00:00 12,6 -1,0 15,6 6,4 7,8 22 12 35 19 ENE 1033,0 39 60 0,0
21.03.2019 11:00:00 11,4 -1,4 14,2 6,4 7,8 23 12 36 20 NE 1033,6 33 60 0,0
21.03.2019 10:00:00 9,5 -1,3 11,4 6,5 7,8 16 8 26 14 NE 1033,8 51 60 0,0
21.03.2019 09:00:00 6,7 -1,0 9,1 6,6 7,8 13 7 24 13 NE 1034,3 20 60 0,0
21.03.2019 08:00:00 5,2 -0,8 -1,7 6,7 7,8 4 2 9 5 ENE 1034,5 18 54 0,0
21.03.2019 07:00:00 0,6 -2,8 -3,5 6,8 7,8 6 3 10 5 E 1034,7 18 0 0,0
21.03.2019 06:00:00 0,1 -3,1 -3,3 6,9 7,8 4 2 9 5 ENE 1034,6 20 0 0,0
21.03.2019 05:00:00 1,0 -1,9 -3,1 7,0 7,8 2 1 9 5 NNE 1034,5 20 0 0,0
21.03.2019 04:00:00 0,6 -2,1 -2,8 7,1 7,8 3 2 7 4 NE 1034,3 17 0 0,0
21.03.2019 03:00:00 2,1 -1,2 -2,7 7,2 7,8 4 2 8 4 NW 1034,3 19 0 0,0
21.03.2019 02:00:00 2,5 -1,7 -1,7 7,3 7,8 3 2 10 5 NW 1034,7 29 0 0,0
21.03.2019 01:00:00 2,6 -1,4 -1,8 7,3 7,8 3 2 7 4 N 1034,9 28 0 0,0
21.03.2019 00:00:00 3,1 -1,8 -1,6 7,4 7,8 4 2 7 4 NNW 1035,1 33 0 0,0
20.03.2019 23:00:00 3,3 -2,2 -0,9 7,5 7,8 1 1 6 3 NW 1035,2 22 0 0,0
20.03.2019 22:00:00 4,1 -1,7 -0,7 7,5 7,8 2 1 9 5 N 1034,9 17 0 0,0
20.03.2019 21:00:00 4,8 -1,4 0,8 7,5 7,8 9 5 15 8 E 1034,8 20 0 0,0
20.03.2019 20:00:00 6,2 -1,5 2,0 7,4 7,8 9 5 11 6 NNE 1034,3 45 0 0,0
20.03.2019 19:00:00 9,2 -2,1 4,6 7,3 7,8 5 3 19 10 N 1033,9 53 15 0,0
20.03.2019 18:00:00 11,5 -1,3 10,2 7,1 7,8 13 7 24 13 NNE 1033,6 54 60 0,0
20.03.2019 17:00:00 12,2 -2,5 12,0 6,9 7,8 15 8 28 15 NNE 1033,3 53 32 0,0
20.03.2019 16:00:00 12,7 -1,6 14,6 6,7 7,8 14 7 29 15 NE 1033,4 48 54 0,0
20.03.2019 15:00:00 12,7 -1,3 15,0 6,6 7,8 16 8 27 15 NE 1033,5 53 60 0,0
20.03.2019 14:00:00 11,7 -1,1 14,5 6,4 7,8 12 6 27 14 NE 1034,0 48 50 0,0
20.03.2019 13:00:00 11,4 -1,4 15,6 6,3 7,8 13 7 27 15 ENE 1034,7 42 60 0,0
20.03.2019 12:00:00 10,9 -0,3 16,4 6,4 7,8 11 6 22 12 ENE 1035,1 20 60 0,0
20.03.2019 11:00:00 9,4 1,3 12,3 6,4 7,8 4 2 11 6 SE 1035,2 20 60 0,0
20.03.2019 10:00:00 6,6 0,3 11,0 6,5 7,8 5 3 11 6 E 1035,4 16 60 0,0
20.03.2019 09:00:00 4,6 -0,2 5,3 6,6 7,8 2 1 5 3 NNE 1035,5 14 60 0,0
20.03.2019 08:00:00 0,3 -2,3 -4,8 6,7 7,8 1 1 4 2 N 1035,5 8 58 0,0
20.03.2019 07:00:00 -2,7 -3,7 -6,1 6,8 7,8 1 1 8 4 SSW 1035,4 7 0 0,0
20.03.2019 06:00:00 -3,3 -4,4 -6,1 7,0 7,8 5 3 8 4 ESE 1034,7 9 0 0,0
20.03.2019 05:00:00 -2,6 -3,9 -5,3 7,1 7,8 1 1 6 3 ENE 1034,3 11 0 0,0
20.03.2019 04:00:00 -2,4 -4,0 -5,4 7,2 7,8 1 1 4 2 ESE 1034,0 9 0 0,0
20.03.2019 03:00:00 -1,3 -2,7 -5,0 7,3 7,8 1 1 11 6 W 1033,7 14 0 0,0
20.03.2019 02:00:00 -1,8 -3,5 -4,7 7,4 7,8 3 2 6 3 ESE 1033,9 14 0 0,0
20.03.2019 01:00:00 -1,0 -2,9 -4,1 7,5 7,8 2 1 5 3 E 1033,8 12 0 0,0
20.03.2019 00:00:00 -0,6 -3,0 -3,4 7,6 7,8 4 2 5 3 SE 1033,3 17 0 0,0
19.03.2019 23:00:00 1,4 -1,8 -2,1 7,7 7,8 2 1 5 3 W 1032,9 13 0 0,0
19.03.2019 22:00:00 1,5 -1,7 -1,4 7,7 7,8 2 1 5 3 N 1032,4 22 0 0,0
19.03.2019 21:00:00 3,1 -1,8 -0,6 7,7 7,8 1 1 11 6 SSE 1031,8 34 0 0,0
19.03.2019 20:00:00 4,2 -1,4 0,1 7,7 7,8 9 5 13 7 NE 1031,3 30 0 0,0
19.03.2019 19:00:00 5,5 -0,8 1,7 7,5 7,8 9 5 16 9 NE 1030,6 56 15 0,0
19.03.2019 18:00:00 9,1 -1,6 8,0 7,4 7,8 12 6 20 11 NNE 1029,6 54 60 0,0
19.03.2019 17:00:00 10,2 -1,5 13,3 7,2 7,8 11 6 21 12 NE 1029,1 59 60 0,0
19.03.2019 16:00:00 10,4 -2,3 14,7 7,0 7,8 11 6 21 11 NNE 1028,8 51 60 0,0
19.03.2019 15:00:00 10,3 -2,4 14,6 6,9 7,8 9 5 22 12 NE 1028,7 20 60 0,0
19.03.2019 14:00:00 9,4 0,5 10,1 6,8 7,8 8 4 18 10 NE 1029,0 45 42 0,0
19.03.2019 13:00:00 9,2 -2,1 9,3 6,7 7,8 7 4 19 11 NNE 1029,1 20 25 0,0
19.03.2019 12:00:00 8,2 0,2 9,4 6,7 7,8 15 8 26 14 NE 1029,1 45 48 0,0
19.03.2019 11:00:00 7,7 1,5 12,4 6,7 7,8 13 7 23 12 NNE 1029,1 19 60 0,0
19.03.2019 10:00:00 6,3 1,2 10,7 6,8 7,8 10 6 17 9 NNE 1029,0 18 60 0,0
19.03.2019 09:00:00 4,0 0,7 2,9 6,8 7,8 4 2 5 3 NW 1028,4 10 60 0,0
19.03.2019 08:00:00 0,0 -0,9 -2,7 6,9 7,8 4 2 6 4 SE 1028,7 0,4 51 0,0
19.03.2019 07:00:00 -1,2 -2,0 -3,3 7,0 7,8 3 2 8 4 SSE 1028,3 4,4 0 0,0
19.03.2019 06:00:00 0,7 -1,1 -1,0 7,1 7,8 2 1 15 8 ENE 1027,3 7 0 0,0
19.03.2019 05:00:00 1,6 0,1 -0,8 7,2 7,8 7 4 14 7 WNW 1026,5 10 0 0,0
19.03.2019 04:00:00 1,7 0,4 -1,6 7,3 7,8 6 3 11 6 WNW 1026,2 20 0 0,0
19.03.2019 03:00:00 1,8 0,0 -0,6 7,3 7,8 3 2 11 6 WNW 1025,8 14 0 0,0
19.03.2019 02:00:00 1,9 1,0 -1,1 7,4 7,8 5 3 9 5 WNW 1026,1 11 0 0,0
19.03.2019 01:00:00 0,8 -0,5 -1,5 7,5 7,8 4 2 10 5 SE 1025,9 7 0 0,0
19.03.2019 00:00:00 1,6 0,3 -1,2 7,5 7,8 3 2 8 4 S 1025,6 19 0 0,0
18.03.2019 23:00:00 3,5 0,5 0,8 7,5 7,8 3 1 8 5 WNW 1025,1 20 0 0,0
18.03.2019 22:00:00 4,6 1,3 1,7 7,5 7,8 3 2 22 12 W 1025,0 56 0 0,0
18.03.2019 21:00:00 6,5 0,8 4,4 7,5 7,8 3 2 13 7 W 1024,3 41 0 0,0
18.03.2019 20:00:00 7,2 0,6 6,0 7,5 7,8 8 4 14 8 WSW 1023,7 60 0 0,0
18.03.2019 19:00:00 7,3 0,9 4,9 7,4 7,8 9 5 16 9 W 1023,0 14 11 0,0
18.03.2019 18:00:00 8,0 0,5 7,3 7,3 7,8 8 4 15 8 WSW 1022,3 60 2 0,0
18.03.2019 17:00:00 8,9 0,6 9,3 7,2 7,8 8 5 19 10 SW 1021,7 59 45 0,0
18.03.2019 16:00:00 8,2 0,7 9,0 7,2 7,8 10 6 18 10 W 1021,8 60 0 0,0
18.03.2019 15:00:00 8,0 0,5 8,6 7,1 7,8 9 5 20 11 WSW 1021,9 60 7 0,0
18.03.2019 14:00:00 7,4 0,4 7,4 7,0 7,8 11 6 24 13 W 1022,1 20 0 0,0
18.03.2019 13:00:00 7,3 0,0 7,6 7,0 7,8 13 7 24 13 W 1022,1 60 0 0,0
18.03.2019 12:00:00 6,7 1,8 6,1 7,0 7,8 14 8 26 14 W 1022,1 55 20 0,0
18.03.2019 11:00:00 5,4 2,6 4,8 7,0 7,7 8 4 26 14 W 1022,0 20 0 0,0
18.03.2019 10:00:00 4,7 2,4 4,6 7,1 7,7 12 7 28 15 W 1021,5 17 0 0,0
18.03.2019 09:00:00 4,6 2,5 3,6 7,1 7,7 15 8 26 14 WSW 1020,6 10 0 0,0
18.03.2019 08:00:00 3,9 2,3 3,2 7,2 7,7 12 6 18 10 S 1020,1 43 0 0,0
18.03.2019 07:00:00 3,7 2,1 2,7 7,3 7,8 7 4 11 6 S 1019,5 46 0 0,0
18.03.2019 06:00:00 3,3 1,7 2,3 7,4 7,7 8 4 14 7 S 1018,9 20 0 0,0
18.03.2019 05:00:00 3,2 1,2 1,8 7,5 7,7 7 4 21 11 SSW 1018,3 9 0 0,0
18.03.2019 04:00:00 3,1 0,8 0,9 7,6 7,7 4 2 16 9 WSW 1018,1 60 0 0,0
18.03.2019 03:00:00 2,8 0,4 0,6 7,7 7,7 8 4 18 10 SW 1018,0 60 0 0,0
18.03.2019 02:00:00 3,0 0,4 0,4 7,8 7,7 9 5 18 10 SW 1017,6 20 0 0,0
18.03.2019 01:00:00 2,4 0,1 -0,8 7,9 7,7 8 5 16 9 SSW 1017,6 60 0 0,0
18.03.2019 00:00:00 0,7 -0,6 -1,3 7,9 7,7 10 6 13 7 ESE 1017,4 19 0 0,0
17.03.2019 23:00:00 1,5 -0,1 -0,9 8,0 7,7 2 1 16 9 SSW 1017,0 53 0 0,0

tt = Température de l'air
td = dewpoint
tt 5cm = Température de l'air 5cm
tt -20cm = Température de l'air -20cm
tt -100cm = Température de l'air -100cm
ff = Vitesse du vent
fx = gusts
dd = Direction du vent
ppp = reduced air pressure
vv = visibility
sd = Ensoleillement
rr = Quantités de précipitations

stations d'obs. à proximité